Flag for U.S.A. Weather past 2 weeks in Toccoa, Georgia, U.S.A.

Now
45 °F

Low clouds.


Feels Like: 43 °F
Forecast: 39 / 52 °F
Wind: 5 mph from East

Location: Clemson-Oconee County Airport

Current Time: Dec 20, 2014 at 8:17:06 PM

Latest Report: Dec 20, 2014 at 6:54 PM


Visibility: 6 mi

Pressure: 30.22 "Hg

Humidity: 82%

Dew point: 40 °F

Location of ToccoaLocation

Historic Weather in Toccoa — Graph

°F

Toccoa temperature yesterday

Maximum temperature yesterday: 57 °F (at 1:54 PM)
Minimum temperature yesterday: 38 °F (at 7:54 AM)
Average temperature yesterday: 48 °F

Past Weeks' High & Low Weather Summary

 TemperatureHumidityPressure
High67 °F (Dec 14, 2:54 PM)90% (Dec 18, 5:54 AM)30.41 "Hg (Dec 18, 5:54 AM)
Low29 °F (Dec 11, 8:00 AM)17% (Dec 12, 3:54 PM)29.88 "Hg (Dec 16, 1:54 PM)
Average48 °F59%30.13 "Hg
* Reported Dec 5 6:54 PM — Dec 20 6:54 PM, Toccoa, Weather by CustomWeather, © 2014

Note: Actual official high and low records may vary slightly from our data, if they occured in-between our weather recording intervals... More about our weather records

Advertising

Toccoa weather history for previous 24 hours

 ConditionsComfort  
Time TempWeatherWind HumidityBarometerVisibility
6:54 PM
Dec 20
45 °FLow clouds.5 mph82%30.22 "Hg6 mi
5:54 PM45 °FLow clouds.3 mph82%30.20 "Hg7 mi
4:54 PM45 °FLow clouds.3 mph86%30.20 "Hg7 mi
3:54 PM45 °FMostly cloudy.5 mph82%30.19 "Hg7 mi
2:54 PM45 °FLow clouds.3 mph82%30.19 "Hg7 mi
1:54 PM44 °FFog.6 mph85%30.19 "Hg3 mi
12:54 PM44 °FLow clouds.7 mph82%30.21 "Hg4 mi
11:54 AM44 °FLight rain. Low clouds.6 mph82%30.23 "Hg4 mi
10:54 AM43 °FLight rain. Fog.6 mph86%30.25 "Hg2 mi
9:54 AM44 °FOvercast.8 mph79%30.24 "Hg5 mi
8:54 AM44 °FOvercast.7 mph82%30.22 "Hg10 mi
7:54 AM44 °FLight rain. Mostly cloudy.6 mph82%30.18 "Hg10 mi
6:54 AM45 °FLight rain. Overcast.6 mph80%30.18 "Hg10 mi
5:54 AM45 °FLight rain. Overcast.3 mph80%30.16 "Hg10 mi
4:54 AM45 °FLight rain. Overcast.3 mph80%30.15 "Hg10 mi
3:54 AM47 °FLight rain. Overcast.5 mph69%30.15 "Hg10 mi
2:54 AM48 °FLight rain. Overcast.3 mph66%30.15 "Hg10 mi
1:54 AM48 °FOvercast.No wind66%30.15 "Hg10 mi
12:54 AM49 °FOvercast.No wind66%30.15 "Hg10 mi
11:54 PM
Dec 19
48 °FClear.No wind66%30.16 "Hg10 mi
10:54 PM49 °FPassing clouds.No wind61%30.17 "Hg10 mi
9:54 PM50 °FClear.No wind57%30.15 "Hg10 mi
8:54 PM49 °FClear.3 mph61%30.14 "Hg10 mi
Weather by CustomWeather, © 2014

See weather overviewHow to use our weather pages